TimeCST,TemperatureF,Dew PointF,Humidity,Sea Level PressureIn,VisibilityMPH,Wind Direction,Wind SpeedMPH,Gust SpeedMPH,PrecipitationIn,Events,Conditions,WindDirDegrees,DateUTC
12:15 AM,32.0,30.2,93,30.10,10.0,SE,5.8,-,N/A,,Clear,140,2012-11-06 06:15:00
12:35 AM,32.0,30.2,93,30.10,10.0,SE,4.6,-,N/A,,Clear,140,2012-11-06 06:35:00
12:55 AM,32.0,28.4,87,30.10,10.0,SE,4.6,-,N/A,,Mostly Cloudy,140,2012-11-06 06:55:00
1:15 AM,32.0,28.4,87,30.09,10.0,SE,3.5,-,N/A,,Overcast,140,2012-11-06 07:15:00
1:35 AM,32.0,28.4,87,30.09,10.0,Calm,Calm,-,N/A,,Overcast,0,2012-11-06 07:35:00
1:55 AM,32.0,28.4,87,30.08,10.0,SE,4.6,-,N/A,,Overcast,130,2012-11-06 07:55:00
2:15 AM,32.0,26.6,80,30.07,10.0,SE,5.8,-,N/A,,Overcast,130,2012-11-06 08:15:00
2:35 AM,32.0,26.6,80,30.06,10.0,SE,5.8,-,N/A,,Scattered Clouds,140,2012-11-06 08:35:00
2:55 AM,32.0,26.6,80,30.04,10.0,SE,8.1,-,N/A,,Scattered Clouds,140,2012-11-06 08:55:00
3:15 AM,32.0,26.6,80,30.04,10.0,SSE,6.9,-,N/A,,Scattered Clouds,150,2012-11-06 09:15:00
3:35 AM,30.2,26.6,86,30.04,10.0,SSE,6.9,-,N/A,,Clear,160,2012-11-06 09:35:00
3:55 AM,30.2,26.6,86,30.04,10.0,SSW,4.6,-,N/A,,Scattered Clouds,200,2012-11-06 09:55:00
4:15 AM,28.4,26.6,93,30.04,10.0,SSW,4.6,-,N/A,,Mostly Cloudy,210,2012-11-06 10:15:00
4:35 AM,30.2,26.6,86,30.03,10.0,South,6.9,-,N/A,,Overcast,190,2012-11-06 10:35:00
4:55 AM,32.0,28.4,87,30.03,10.0,South,6.9,-,N/A,,Overcast,170,2012-11-06 10:55:00
5:15 AM,32.0,28.4,87,30.01,10.0,SSE,9.2,-,N/A,,Overcast,150,2012-11-06 11:15:00
5:35 AM,32.0,28.4,87,30.00,10.0,SSE,8.1,-,N/A,,Overcast,150,2012-11-06 11:35:00
5:55 AM,32.0,28.4,87,29.99,10.0,SE,6.9,-,N/A,,Overcast,140,2012-11-06 11:55:00
6:15 AM,32.0,28.4,87,29.99,10.0,SSE,5.8,-,N/A,,Overcast,150,2012-11-06 12:15:00
6:35 AM,32.0,28.4,87,29.99,10.0,SE,4.6,-,N/A,,Overcast,130,2012-11-06 12:35:00
6:55 AM,32.0,28.4,87,29.99,10.0,SE,5.8,-,N/A,,Overcast,130,2012-11-06 12:55:00
7:15 AM,32.0,28.4,87,29.99,10.0,SE,5.8,-,N/A,,Overcast,140,2012-11-06 13:15:00
7:35 AM,32.0,28.4,87,30.00,10.0,SSE,5.8,-,N/A,,Overcast,150,2012-11-06 13:35:00
7:55 AM,32.0,28.4,87,29.99,10.0,SSE,6.9,-,N/A,,Overcast,160,2012-11-06 13:55:00
8:15 AM,33.8,28.4,81,29.98,10.0,SSE,8.1,-,N/A,,Overcast,160,2012-11-06 14:15:00
8:35 AM,33.8,28.4,81,29.97,10.0,SSE,8.1,-,N/A,,Mostly Cloudy,150,2012-11-06 14:35:00
8:55 AM,33.8,30.2,87,29.97,10.0,SSE,6.9,-,N/A,,Mostly Cloudy,150,2012-11-06 14:55:00
9:15 AM,33.8,30.2,87,29.97,10.0,SSE,10.4,-,N/A,,Overcast,150,2012-11-06 15:15:00
9:35 AM,35.6,30.2,81,29.96,10.0,SSE,11.5,-,N/A,,Overcast,150,2012-11-06 15:35:00
9:55 AM,35.6,30.2,81,29.95,10.0,SSE,11.5,-,N/A,,Overcast,150,2012-11-06 15:55:00
10:15 AM,35.6,30.2,81,29.94,10.0,SSE,9.2,-,N/A,,Overcast,160,2012-11-06 16:15:00
10:35 AM,37.4,30.2,75,29.95,10.0,South,11.5,-,N/A,,Overcast,180,2012-11-06 16:35:00
10:55 AM,37.4,30.2,75,29.94,10.0,South,13.8,-,N/A,,Light Drizzle,170,2012-11-06 16:55:00
11:15 AM,37.4,32.0,81,29.93,10.0,South,11.5,-,N/A,,Drizzle,170,2012-11-06 17:15:00
11:35 AM,35.6,32.0,87,29.93,7.0,South,15.0,-,N/A,Rain,Light Rain,170,2012-11-06 17:35:00
11:55 AM,35.6,32.0,87,29.92,5.0,South,12.7,-,N/A,Rain,Rain,180,2012-11-06 17:55:00
12:15 PM,35.6,32.0,87,29.91,4.0,South,12.7,-,N/A,Rain,Light Rain,180,2012-11-06 18:15:00
12:35 PM,35.6,33.8,93,29.90,4.0,South,11.5,-,N/A,Rain,Rain,180,2012-11-06 18:35:00
12:55 PM,35.6,33.8,93,29.89,5.0,SSE,10.4,-,N/A,Rain,Rain,160,2012-11-06 18:55:00
1:15 PM,35.6,33.8,93,29.89,7.0,SSE,11.5,16.1,N/A,,Drizzle,160,2012-11-06 19:15:00
1:35 PM,35.6,33.8,93,29.88,5.0,SSE,11.5,-,N/A,,Light Drizzle,160,2012-11-06 19:35:00
1:55 PM,35.6,33.8,93,29.87,5.0,SSE,11.5,-,N/A,,Overcast,150,2012-11-06 19:55:00
2:15 PM,35.6,33.8,93,29.87,5.0,SSE,10.4,-,N/A,,Light Drizzle,150,2012-11-06 20:15:00
2:35 PM,35.6,33.8,93,29.87,5.0,SSE,11.5,-,N/A,,Drizzle,150,2012-11-06 20:35:00
2:55 PM,35.6,33.8,93,29.86,4.0,SSE,12.7,-,N/A,,Drizzle,150,2012-11-06 20:55:00
3:15 PM,35.6,33.8,93,29.86,4.0,SSE,11.5,-,N/A,,Drizzle,150,2012-11-06 21:15:00
3:35 PM,35.6,33.8,93,29.87,4.0,SSE,13.8,-,N/A,,Drizzle,150,2012-11-06 21:35:00
3:55 PM,35.6,33.8,93,29.87,4.0,SSE,10.4,-,N/A,Rain,Light Rain,160,2012-11-06 21:55:00
4:15 PM,35.6,33.8,93,29.87,4.0,SSE,10.4,-,N/A,Rain,Light Rain,150,2012-11-06 22:15:00
4:35 PM,35.6,33.8,93,29.87,3.0,SSE,10.4,-,N/A,Rain,Light Rain,160,2012-11-06 22:35:00
4:55 PM,35.6,33.8,93,29.87,3.0,SSE,9.2,-,N/A,Rain,Light Rain,150,2012-11-06 22:55:00
5:15 PM,35.6,33.8,93,29.88,2.5,SSE,8.1,-,N/A,Rain,Rain,150,2012-11-06 23:15:00
5:35 PM,33.8,33.8,100,29.88,3.0,SSE,6.9,-,N/A,,Drizzle,150,2012-11-06 23:35:00
5:55 PM,33.8,33.8,100,29.88,3.0,SE,6.9,-,N/A,Rain,Rain,140,2012-11-06 23:55:00
6:15 PM,33.8,33.8,100,29.88,2.5,SSE,9.2,-,N/A,Rain,Light Rain,150,2012-11-07 00:15:00
6:35 PM,33.8,33.8,100,29.88,1.8,SSE,8.1,-,0.01,Rain,Rain,150,2012-11-07 00:35:00
6:55 PM,33.8,32.0,93,29.88,1.8,SE,6.9,-,0.01,Rain,Light Rain,130,2012-11-07 00:55:00
7:15 PM,33.8,32.0,93,29.88,1.5,SE,6.9,-,N/A,Rain,Light Rain,130,2012-11-07 01:15:00
7:35 PM,33.8,33.8,100,29.88,1.5,SE,5.8,-,N/A,Rain,Light Rain,130,2012-11-07 01:35:00
7:55 PM,33.8,33.8,100,29.88,1.2,SE,4.6,-,N/A,,Drizzle,130,2012-11-07 01:55:00
8:15 PM,33.8,33.8,100,29.88,1.5,SE,5.8,-,N/A,,Drizzle,130,2012-11-07 02:15:00
8:35 PM,33.8,33.8,100,29.88,1.5,SE,6.9,-,N/A,,Overcast,130,2012-11-07 02:35:00
8:55 PM,33.8,33.8,100,29.89,1.5,SE,5.8,-,N/A,,Overcast,130,2012-11-07 02:55:00
9:15 PM,33.8,33.8,100,29.89,1.8,SE,5.8,-,N/A,,Overcast,140,2012-11-07 03:15:00
9:35 PM,33.8,33.8,100,29.89,1.8,ESE,4.6,-,N/A,,Overcast,120,2012-11-07 03:35:00
9:55 PM,33.8,33.8,100,29.89,1.5,ESE,3.5,-,N/A,,Overcast,110,2012-11-07 03:55:00
10:15 PM,33.8,33.8,100,29.89,1.5,ESE,5.8,-,N/A,,Overcast,110,2012-11-07 04:15:00
10:35 PM,33.8,33.8,100,29.89,1.5,ESE,5.8,-,N/A,,Light Drizzle,110,2012-11-07 04:35:00
10:55 PM,35.6,35.6,100,29.89,1.2,East,3.5,-,N/A,,Light Drizzle,90,2012-11-07 04:55:00
11:15 PM,35.6,35.6,100,29.90,1.2,East,3.5,-,N/A,,Overcast,100,2012-11-07 05:15:00
11:35 PM,35.6,35.6,100,29.90,1.0,East,3.5,-,N/A,,Overcast,90,2012-11-07 05:35:00
11:55 PM,35.6,35.6,100,29.90,1.0,East,3.5,-,N/A,,Overcast,90,2012-11-07 05:55:00